SCO16ST MMUN-EGPH

Flight info

Callsign SCO16ST
Flight time N/A
Altitude 35000
Route CUN3A CUN R506 DUGNI UR506 NUDAL UV106 PODON UG765 MAXIM Y262 TUNSL Q81 KARTR/N0492F360 DCT LAL/N0495F350 DCT ORL DCT CHS/N0487F370 DCT CRE DCT RAPZZ DCT ISO DCT ORF DCT RBV Q22 FOXWD DCT EBONY N633A RIKAL/M084F390 DCT 53N050W 54N040W 55N030W 56N020W DCT PIKIL DCT SOVED/N0488F390 DCT MIMKU DCT DONIB DCT MAC/N0459F250 N562 TRN DCT TLA
Aircraft B77W/H-SDE1E2E3FGHIJ2J3J4J5M1RWXY/LB1D1

Departure

Time N/A
Airport Cancún International Airport (MMUN)

Arrival

Time 2026-05-06 11:47
Airport Edinburgh Airport (EGPH)
Time Latitude Longitude Altitude Speed Heading
2026-05-06 09:29 54.88510 -31.78249 29785 ft 430 kts 87°
2026-05-06 09:30 54.88879 -31.73098 29787 ft 430 kts 87°
2026-05-06 09:30 54.89613 -31.62775 29793 ft 430 kts 87°
2026-05-06 09:31 54.90337 -31.52465 29794 ft 430 kts 87°
2026-05-06 09:31 54.91054 -31.42129 29796 ft 433 kts 88°
2026-05-06 09:32 54.91769 -31.31669 29794 ft 438 kts 88°
2026-05-06 09:32 54.92485 -31.21086 29805 ft 443 kts 88°
2026-05-06 09:33 54.93199 -31.10392 29801 ft 447 kts 88°
2026-05-06 09:33 54.93909 -30.99592 29804 ft 451 kts 88°
2026-05-06 09:34 54.94614 -30.88719 29801 ft 454 kts 88°
2026-05-06 09:34 54.95309 -30.77859 29832 ft 456 kts 88°
2026-05-06 09:34 54.95656 -30.72379 30020 ft 452 kts 88°
2026-05-06 09:35 54.95994 -30.67045 30738 ft 434 kts 88°
2026-05-06 09:35 54.96315 -30.61926 31496 ft 416 kts 88°
2026-05-06 09:35 54.96616 -30.57034 32226 ft 399 kts 88°
2026-05-06 09:35 54.96903 -30.52294 32572 ft 393 kts 88°
2026-05-06 09:36 54.97188 -30.47553 32560 ft 395 kts 87°
2026-05-06 09:36 54.97477 -30.42752 32308 ft 403 kts 87°
2026-05-06 09:36 54.97773 -30.37858 32092 ft 410 kts 87°
2026-05-06 09:37 54.98273 -30.29625 32188 ft 409 kts 88°
2026-05-06 09:37 54.98566 -30.24734 32417 ft 404 kts 88°
2026-05-06 09:37 54.98851 -30.19902 32638 ft 400 kts 88°
2026-05-06 09:38 54.99410 -30.10274 32639 ft 402 kts 88°
2026-05-06 09:38 54.99690 -30.05401 32492 ft 407 kts 88°
2026-05-06 09:38 54.99975 -30.00460 32420 ft 412 kts 87°
2026-05-06 09:38 55.00368 -29.95506 32571 ft 414 kts 83°
2026-05-06 09:39 55.00916 -29.90593 32858 ft 413 kts 81°
2026-05-06 09:39 55.01575 -29.85707 33111 ft 413 kts 79°
2026-05-06 09:39 55.02314 -29.80873 33376 ft 412 kts 77°
2026-05-06 09:39 55.03106 -29.76086 33632 ft 411 kts 77°
2026-05-06 09:40 55.03901 -29.71316 33893 ft 409 kts 77°
2026-05-06 09:40 55.04668 -29.66565 34143 ft 406 kts 78°
2026-05-06 09:40 55.06099 -29.57101 34568 ft 400 kts 79°
2026-05-06 09:41 55.06772 -29.52409 34772 ft 397 kts 79°
2026-05-06 09:41 55.07427 -29.47737 34900 ft 397 kts 79°
2026-05-06 09:41 55.08725 -29.38320 34637 ft 412 kts 79°
2026-05-06 09:42 55.09416 -29.33257 33862 ft 437 kts 80°
2026-05-06 09:42 55.10135 -29.27967 32688 ft 470 kts 79°
2026-05-06 09:42 55.10916 -29.22236 32276 ft 484 kts 79°
2026-05-06 09:42 55.11706 -29.16471 32122 ft 492 kts 79°
2026-05-06 09:43 55.12495 -29.10700 32003 ft 498 kts 79°
2026-05-06 09:43 55.13301 -29.04802 32014 ft 501 kts 79°
2026-05-06 09:43 55.14916 -28.92887 32006 ft 506 kts 79°
2026-05-06 09:44 55.16529 -28.80854 32010 ft 511 kts 79°
2026-05-06 09:44 55.18142 -28.68697 32009 ft 514 kts 79°
2026-05-06 09:45 55.19750 -28.56478 32005 ft 516 kts 79°
2026-05-06 09:45 55.21351 -28.44213 32007 ft 517 kts 79°
2026-05-06 09:46 55.22942 -28.31920 32003 ft 517 kts 79°
2026-05-06 09:46 55.24521 -28.19615 32004 ft 517 kts 79°
2026-05-06 09:47 55.26085 -28.07323 32001 ft 516 kts 79°
2026-05-06 09:47 55.27634 -27.95036 32004 ft 516 kts 79°
2026-05-06 09:48 55.29171 -27.82747 32006 ft 515 kts 79°
2026-05-06 09:48 55.30692 -27.70462 32003 ft 515 kts 79°
2026-05-06 09:49 55.32201 -27.58173 32004 ft 515 kts 79°
2026-05-06 09:49 55.33699 -27.45864 32005 ft 515 kts 79°
2026-05-06 09:50 55.35185 -27.33543 32006 ft 516 kts 79°
2026-05-06 09:50 55.36661 -27.21192 32000 ft 517 kts 80°
2026-05-06 09:51 55.38126 -27.08817 31998 ft 518 kts 80°
2026-05-06 09:51 55.39582 -26.96405 31996 ft 519 kts 80°
2026-05-06 09:52 55.41029 -26.83958 32002 ft 520 kts 80°
2026-05-06 09:52 55.42466 -26.71475 31997 ft 521 kts 80°
2026-05-06 09:53 55.43892 -26.58967 31993 ft 521 kts 80°
2026-05-06 09:53 55.45306 -26.46440 31992 ft 522 kts 80°
2026-05-06 09:54 55.46702 -26.33960 31986 ft 523 kts 80°
2026-05-06 09:54 55.48094 -26.21391 31987 ft 523 kts 80°
2026-05-06 09:55 55.49475 -26.08789 31988 ft 524 kts 80°
2026-05-06 09:55 55.50844 -25.96169 31982 ft 524 kts 80°
2026-05-06 09:56 55.52203 -25.83511 31983 ft 525 kts 80°
2026-05-06 09:56 55.53548 -25.70858 31975 ft 525 kts 80°
2026-05-06 09:57 55.54883 -25.58178 31977 ft 525 kts 80°
2026-05-06 09:57 55.56205 -25.45477 31975 ft 526 kts 80°
2026-05-06 09:58 55.57513 -25.32774 31970 ft 526 kts 80°
2026-05-06 09:58 55.58811 -25.20040 31963 ft 526 kts 80°
2026-05-06 09:59 55.60094 -25.07306 31963 ft 527 kts 80°
2026-05-06 09:59 55.61367 -24.94539 31969 ft 527 kts 80°
2026-05-06 10:00 55.62629 -24.81734 31957 ft 528 kts 80°
2026-05-06 10:00 55.63874 -24.68938 31959 ft 528 kts 80°
2026-05-06 10:01 55.65112 -24.56112 31954 ft 529 kts 81°
2026-05-06 10:01 55.66336 -24.43272 31953 ft 529 kts 81°
2026-05-06 10:02 55.67548 -24.30404 31946 ft 530 kts 81°
2026-05-06 10:02 55.68745 -24.17529 31948 ft 530 kts 81°
2026-05-06 10:03 55.69929 -24.04641 31945 ft 530 kts 81°
2026-05-06 10:03 55.71101 -23.91735 31940 ft 530 kts 81°
2026-05-06 10:04 55.72253 -23.78900 31934 ft 530 kts 81°
2026-05-06 10:04 55.73399 -23.65982 31932 ft 530 kts 81°
2026-05-06 10:05 55.74539 -23.52964 31932 ft 530 kts 81°
2026-05-06 10:05 55.75651 -23.40097 31929 ft 530 kts 81°
2026-05-06 10:06 55.76755 -23.27158 31925 ft 531 kts 81°
2026-05-06 10:06 55.77848 -23.14188 31926 ft 531 kts 81°
2026-05-06 10:07 55.78928 -23.01202 31917 ft 531 kts 81°
2026-05-06 10:07 55.79993 -22.88223 31920 ft 531 kts 81°
2026-05-06 10:08 55.81046 -22.75215 31912 ft 532 kts 81°
2026-05-06 10:08 55.82086 -22.62193 31911 ft 532 kts 81°
2026-05-06 10:09 55.83112 -22.49159 31911 ft 532 kts 81°
2026-05-06 10:09 55.84126 -22.36098 31912 ft 533 kts 81°
2026-05-06 10:10 55.85126 -22.23038 31907 ft 533 kts 81°
2026-05-06 10:10 55.86114 -22.09945 31903 ft 534 kts 81°
2026-05-06 10:11 55.87088 -21.96841 31903 ft 534 kts 81°
2026-05-06 10:11 55.88049 -21.83723 31902 ft 534 kts 81°
2026-05-06 10:12 55.88996 -21.70597 31897 ft 535 kts 81°
2026-05-06 10:12 55.89930 -21.57452 31898 ft 535 kts 82°
2026-05-06 10:13 55.90850 -21.44307 31889 ft 535 kts 82°
2026-05-06 10:13 55.91756 -21.31148 31898 ft 535 kts 82°
2026-05-06 10:14 55.92649 -21.17985 31891 ft 535 kts 82°
2026-05-06 10:14 55.93527 -21.04802 31892 ft 535 kts 82°
2026-05-06 10:15 55.94392 -20.91619 31884 ft 535 kts 82°
2026-05-06 10:15 55.95242 -20.78436 31885 ft 535 kts 82°
2026-05-06 10:16 55.96078 -20.65244 31886 ft 535 kts 82°
2026-05-06 10:16 55.96899 -20.52057 31884 ft 535 kts 82°
2026-05-06 10:17 55.97706 -20.38858 31880 ft 535 kts 82°
2026-05-06 10:17 55.98500 -20.25654 31880 ft 535 kts 82°
2026-05-06 10:18 55.99274 -20.12535 31876 ft 535 kts 82°
2026-05-06 10:18 56.00042 -19.99258 31868 ft 529 kts 83°
2026-05-06 10:19 56.00480 -19.86303 31864 ft 517 kts 87°
2026-05-06 10:19 56.00611 -19.73675 31868 ft 507 kts 88°
2026-05-06 10:20 56.00724 -19.61179 31866 ft 499 kts 87°
2026-05-06 10:20 56.00896 -19.48854 31867 ft 493 kts 86°
2026-05-06 10:21 56.01096 -19.36671 31863 ft 488 kts 86°
2026-05-06 10:21 56.01287 -19.24593 31862 ft 484 kts 86°
2026-05-06 10:22 56.01456 -19.12634 31867 ft 480 kts 87°
2026-05-06 10:22 56.01606 -19.00757 31866 ft 476 kts 87°
2026-05-06 10:23 56.01743 -18.88961 31863 ft 473 kts 87°
2026-05-06 10:23 56.01869 -18.77235 31872 ft 470 kts 87°
2026-05-06 10:24 56.01965 -18.67547 31870 ft 468 kts 87°
2026-05-06 10:24 56.02071 -18.55940 31869 ft 466 kts 87°
2026-05-06 10:25 56.02164 -18.44390 31868 ft 464 kts 87°
2026-05-06 10:25 56.02247 -18.32884 31874 ft 462 kts 88°
2026-05-06 10:26 56.02319 -18.21430 31872 ft 460 kts 88°
2026-05-06 10:26 56.02380 -18.10017 31877 ft 458 kts 88°
2026-05-06 10:27 56.02430 -17.98638 31875 ft 457 kts 88°
2026-05-06 10:27 56.02469 -17.87302 31879 ft 456 kts 88°
2026-05-06 10:28 56.02498 -17.75985 31880 ft 454 kts 88°
2026-05-06 10:28 56.02517 -17.64710 31879 ft 453 kts 88°
2026-05-06 10:29 56.02525 -17.53461 31877 ft 452 kts 88°
2026-05-06 10:29 56.02524 -17.42239 31882 ft 451 kts 88°
2026-05-06 10:30 56.02512 -17.31041 31881 ft 450 kts 88°
2026-05-06 10:30 56.02489 -17.19874 31889 ft 449 kts 88°
2026-05-06 10:31 56.02456 -17.08717 31882 ft 448 kts 88°
2026-05-06 10:31 56.02415 -16.97586 31883 ft 447 kts 89°
2026-05-06 10:32 56.02363 -16.86471 31888 ft 447 kts 89°
2026-05-06 10:32 56.02301 -16.75388 31885 ft 446 kts 89°
2026-05-06 10:33 56.02229 -16.64303 31885 ft 445 kts 89°
2026-05-06 10:33 56.02148 -16.53313 31885 ft 445 kts 89°
2026-05-06 10:34 56.02057 -16.42275 31885 ft 444 kts 89°
2026-05-06 10:34 56.01956 -16.31232 31885 ft 444 kts 89°
2026-05-06 10:35 56.01845 -16.20214 31885 ft 443 kts 89°
2026-05-06 10:35 56.01724 -16.09208 31887 ft 443 kts 89°
2026-05-06 10:36 56.01594 -15.98218 31889 ft 442 kts 89°
2026-05-06 10:36 56.01454 -15.87237 31888 ft 442 kts 90°
2026-05-06 10:37 56.01305 -15.76261 31888 ft 441 kts 90°
2026-05-06 10:37 56.01146 -15.65298 31893 ft 441 kts 90°
2026-05-06 10:38 56.00977 -15.54349 31890 ft 441 kts 90°
2026-05-06 10:38 56.00800 -15.43407 31893 ft 440 kts 90°
2026-05-06 10:39 56.00613 -15.32539 31893 ft 440 kts 90°
2026-05-06 10:39 56.00417 -15.21609 31878 ft 440 kts 90°
2026-05-06 10:40 56.00211 -15.10686 31886 ft 440 kts 90°
2026-05-06 10:40 55.99996 -14.99765 31881 ft 440 kts 90°
2026-05-06 10:41 55.99935 -14.88726 31895 ft 452 kts 88°
2026-05-06 10:41 56.00025 -14.77483 31874 ft 452 kts 88°
2026-05-06 10:42 56.00090 -14.66264 31875 ft 451 kts 88°
2026-05-06 10:42 56.00107 -14.55069 31882 ft 450 kts 88°
2026-05-06 10:43 56.00101 -14.43886 31880 ft 449 kts 88°
2026-05-06 10:44 56.00078 -14.27162 31884 ft 448 kts 89°
2026-05-06 10:44 56.00053 -14.16031 31885 ft 448 kts 89°
2026-05-06 10:45 56.00020 -14.04922 31885 ft 447 kts 89°
2026-05-06 10:45 56.00019 -13.93772 31902 ft 454 kts 87°
2026-05-06 10:46 56.00198 -13.82312 31901 ft 468 kts 86°
2026-05-06 10:46 56.00419 -13.70683 31882 ft 467 kts 87°
2026-05-06 10:47 56.00600 -13.59121 31882 ft 465 kts 87°
2026-05-06 10:47 56.00744 -13.47608 31881 ft 462 kts 88°
2026-05-06 10:48 56.00871 -13.36143 31883 ft 460 kts 88°
2026-05-06 10:48 56.00987 -13.24736 31879 ft 458 kts 88°
2026-05-06 10:49 56.01096 -13.13368 31886 ft 457 kts 88°
2026-05-06 10:49 56.01195 -13.02117 31886 ft 455 kts 88°
2026-05-06 10:50 56.01283 -12.90832 31888 ft 453 kts 88°
2026-05-06 10:50 56.01361 -12.79586 31886 ft 452 kts 88°
2026-05-06 10:51 56.01428 -12.68369 31891 ft 451 kts 89°
2026-05-06 10:51 56.01485 -12.57186 31889 ft 449 kts 89°
2026-05-06 10:52 56.01531 -12.46023 31892 ft 448 kts 89°
2026-05-06 10:52 56.01567 -12.34899 31889 ft 447 kts 89°
2026-05-06 10:53 56.01594 -12.23785 31894 ft 446 kts 89°
2026-05-06 10:53 56.01610 -12.12712 31896 ft 445 kts 89°
2026-05-06 10:54 56.01616 -12.01648 31899 ft 445 kts 89°
2026-05-06 10:54 56.01613 -11.90600 31898 ft 444 kts 89°
2026-05-06 10:55 56.01600 -11.79582 31900 ft 443 kts 90°
2026-05-06 10:55 56.01577 -11.68562 31901 ft 443 kts 90°
2026-05-06 10:56 56.01544 -11.57575 31909 ft 442 kts 90°
2026-05-06 10:56 56.01501 -11.46588 31904 ft 442 kts 90°
2026-05-06 10:57 56.01449 -11.35611 31908 ft 441 kts 90°
2026-05-06 10:57 56.01387 -11.24644 31906 ft 441 kts 90°
2026-05-06 10:58 56.01316 -11.13699 31911 ft 441 kts 90°
2026-05-06 10:58 56.01234 -11.02749 31912 ft 440 kts 90°
2026-05-06 10:59 56.01144 -10.91886 31917 ft 440 kts 90°
2026-05-06 10:59 56.01043 -10.80958 31918 ft 440 kts 91°
2026-05-06 11:00 56.00933 -10.70039 31925 ft 439 kts 91°
2026-05-06 11:00 56.00812 -10.59122 31912 ft 439 kts 91°
2026-05-06 11:01 56.00683 -10.48222 31928 ft 439 kts 91°
2026-05-06 11:01 56.00546 -10.37326 31936 ft 439 kts 91°
2026-05-06 11:02 56.00398 -10.26427 31922 ft 439 kts 91°
2026-05-06 11:02 56.00240 -10.15534 31932 ft 439 kts 91°
2026-05-06 11:03 56.00075 -10.04641 31930 ft 439 kts 91°
2026-05-06 11:03 55.99507 -9.93799 31945 ft 443 kts 105°
2026-05-06 11:04 55.97685 -9.83205 31937 ft 446 kts 108°
2026-05-06 11:04 55.96246 -9.72443 31934 ft 446 kts 99°
2026-05-06 11:05 55.95362 -9.61371 31951 ft 458 kts 98°
2026-05-06 11:05 55.94315 -9.49988 31950 ft 472 kts 100°
2026-05-06 11:06 55.93009 -9.38333 31955 ft 486 kts 102°
2026-05-06 11:06 55.91565 -9.26413 31954 ft 498 kts 102°
2026-05-06 11:07 55.90081 -9.14229 31949 ft 508 kts 102°
2026-05-06 11:07 55.88586 -9.01828 31950 ft 516 kts 102°
2026-05-06 11:08 55.87074 -8.89275 31946 ft 522 kts 102°
2026-05-06 11:08 55.85530 -8.76582 31943 ft 526 kts 102°
2026-05-06 11:09 55.83960 -8.63827 31935 ft 528 kts 102°
2026-05-06 11:09 55.82371 -8.51057 31935 ft 529 kts 102°
2026-05-06 11:10 55.80770 -8.38297 31929 ft 529 kts 103°
2026-05-06 11:10 55.79157 -8.25560 31919 ft 527 kts 103°
2026-05-06 11:11 55.77536 -8.12878 31917 ft 526 kts 103°
2026-05-06 11:11 55.75908 -8.00244 31922 ft 524 kts 103°
2026-05-06 11:12 55.74548 -7.89778 31919 ft 524 kts 103°
2026-05-06 11:12 55.72900 -7.77182 31928 ft 523 kts 103°
2026-05-06 11:13 55.71244 -7.64635 31928 ft 523 kts 103°
2026-05-06 11:13 55.69572 -7.52074 31926 ft 523 kts 103°
2026-05-06 11:14 55.67889 -7.39531 31925 ft 523 kts 103°
2026-05-06 11:14 55.66195 -7.27001 31935 ft 523 kts 103°
2026-05-06 11:15 55.64486 -7.14464 31929 ft 523 kts 103°
2026-05-06 11:15 55.62765 -7.01946 31932 ft 523 kts 104°
2026-05-06 11:16 55.61031 -6.89441 31933 ft 523 kts 104°
2026-05-06 11:16 55.59286 -6.76955 31938 ft 523 kts 104°
2026-05-06 11:17 55.57527 -6.64476 31935 ft 523 kts 104°
2026-05-06 11:17 55.55758 -6.52023 31942 ft 523 kts 104°
2026-05-06 11:18 55.53977 -6.39581 31942 ft 523 kts 104°
2026-05-06 11:18 55.52183 -6.27154 31943 ft 522 kts 104°
2026-05-06 11:19 55.50377 -6.14739 31939 ft 522 kts 104°
2026-05-06 11:19 55.48561 -6.02350 31946 ft 522 kts 104°
2026-05-06 11:20 55.46733 -5.89980 31938 ft 522 kts 104°
2026-05-06 11:20 55.44906 -5.77706 31944 ft 521 kts 104°
2026-05-06 11:21 55.43054 -5.65351 31940 ft 522 kts 105°
2026-05-06 11:21 55.41307 -5.52960 32127 ft 522 kts 102°
2026-05-06 11:22 55.39705 -5.40463 31997 ft 525 kts 102°
2026-05-06 11:22 55.38089 -5.27922 31953 ft 526 kts 102°
2026-05-06 11:23 55.36410 -5.15426 31877 ft 525 kts 103°
2026-05-06 11:23 55.35555 -5.09180 31364 ft 521 kts 103°
2026-05-06 11:23 55.34714 -5.03038 30849 ft 513 kts 103°
2026-05-06 11:23 55.33883 -4.96979 30345 ft 506 kts 103°
2026-05-06 11:24 55.33061 -4.91020 29804 ft 499 kts 103°
2026-05-06 11:24 55.32243 -4.85134 29228 ft 493 kts 103°
2026-05-06 11:24 55.31499 -4.79332 28643 ft 480 kts 99°
2026-05-06 11:24 55.31141 -4.73571 28019 ft 472 kts 86°
2026-05-06 11:25 55.31815 -4.67980 27475 ft 470 kts 66°
2026-05-06 11:25 55.33156 -4.62867 27012 ft 464 kts 62°
2026-05-06 11:25 55.34531 -4.57746 26491 ft 465 kts 65°
2026-05-06 11:25 55.35525 -4.52317 25971 ft 472 kts 78°
2026-05-06 11:26 55.35928 -4.46621 25382 ft 467 kts 85°
2026-05-06 11:26 55.36144 -4.40960 24486 ft 462 kts 85°
2026-05-06 11:26 55.36450 -4.35376 23652 ft 456 kts 80°
2026-05-06 11:26 55.37087 -4.29960 22673 ft 450 kts 73°
2026-05-06 11:27 55.37962 -4.24716 21743 ft 446 kts 71°
2026-05-06 11:27 55.38898 -4.19475 20853 ft 451 kts 71°
2026-05-06 11:27 55.39798 -4.14170 19978 ft 456 kts 73°
2026-05-06 11:27 55.40633 -4.08752 19120 ft 460 kts 75°
2026-05-06 11:28 55.41399 -4.03284 18269 ft 463 kts 76°
2026-05-06 11:28 55.42114 -3.97773 17602 ft 455 kts 77°
2026-05-06 11:28 55.42767 -3.92489 17199 ft 431 kts 77°
2026-05-06 11:28 55.43384 -3.87398 16331 ft 421 kts 77°
2026-05-06 11:29 55.43994 -3.82405 15429 ft 413 kts 77°
2026-05-06 11:29 55.44602 -3.77500 14562 ft 406 kts 77°
2026-05-06 11:29 55.45207 -3.72690 13691 ft 400 kts 76°
2026-05-06 11:29 55.45808 -3.67949 12754 ft 393 kts 76°
2026-05-06 11:30 55.46399 -3.63298 11840 ft 387 kts 77°
2026-05-06 11:30 55.46983 -3.58696 10958 ft 381 kts 77°
2026-05-06 11:30 55.47555 -3.54166 10089 ft 375 kts 77°
2026-05-06 11:30 55.48110 -3.49743 9145 ft 363 kts 77°
2026-05-06 11:31 55.48641 -3.45479 8213 ft 350 kts 77°
2026-05-06 11:31 55.49150 -3.41364 7482 ft 335 kts 77°
2026-05-06 11:31 55.49622 -3.37504 7229 ft 310 kts 76°
2026-05-06 11:31 55.50200 -3.33926 6707 ft 299 kts 67°
2026-05-06 11:32 55.51245 -3.30877 6150 ft 285 kts 43°
2026-05-06 11:32 55.52867 -3.29068 5592 ft 272 kts 16°
2026-05-06 11:32 55.54716 -3.28865 5192 ft 270 kts 347°
2026-05-06 11:32 55.56408 -3.30328 5093 ft 278 kts 319°
2026-05-06 11:33 55.57609 -3.33005 5044 ft 279 kts 300°
2026-05-06 11:33 55.58543 -3.36002 4673 ft 278 kts 298°
2026-05-06 11:33 55.59441 -3.38993 4239 ft 270 kts 298°
2026-05-06 11:33 55.60337 -3.41840 4071 ft 265 kts 300°
2026-05-06 11:34 55.61248 -3.44624 4054 ft 253 kts 300°
2026-05-06 11:34 55.62097 -3.47196 4027 ft 233 kts 300°
2026-05-06 11:34 55.62902 -3.49618 4034 ft 225 kts 300°
2026-05-06 11:34 55.63690 -3.52035 4066 ft 230 kts 296°
2026-05-06 11:35 55.64337 -3.54565 4083 ft 235 kts 291°
2026-05-06 11:35 55.64932 -3.57287 4066 ft 234 kts 290°
2026-05-06 11:35 55.65493 -3.59971 4066 ft 233 kts 289°
2026-05-06 11:35 55.66049 -3.62667 4059 ft 232 kts 287°
2026-05-06 11:36 55.66411 -3.65432 4074 ft 230 kts 278°
2026-05-06 11:36 55.66641 -3.68232 4063 ft 229 kts 276°
2026-05-06 11:36 55.66815 -3.71031 4074 ft 229 kts 275°
2026-05-06 11:36 55.67010 -3.73839 4068 ft 231 kts 276°
2026-05-06 11:37 55.67211 -3.76669 4079 ft 232 kts 276°
2026-05-06 11:37 55.67416 -3.79511 4088 ft 234 kts 276°
2026-05-06 11:37 55.67621 -3.82381 4062 ft 236 kts 276°
2026-05-06 11:37 55.67829 -3.85266 4077 ft 238 kts 276°
2026-05-06 11:38 55.68053 -3.88173 4062 ft 237 kts 278°
2026-05-06 11:38 55.68384 -3.90940 4040 ft 229 kts 289°
2026-05-06 11:38 55.69239 -3.93337 4091 ft 230 kts 313°
2026-05-06 11:38 55.70357 -3.95374 3994 ft 238 kts 316°
2026-05-06 11:39 55.71663 -3.97277 3551 ft 243 kts 329°
2026-05-06 11:39 55.73239 -3.98221 3123 ft 236 kts
2026-05-06 11:39 55.74760 -3.97525 3019 ft 225 kts 36°
2026-05-06 11:39 55.75822 -3.95513 3014 ft 225 kts 60°
2026-05-06 11:40 55.76505 -3.93053 2997 ft 226 kts 78°
2026-05-06 11:40 55.76497 -3.90378 2997 ft 212 kts 105°
2026-05-06 11:40 55.76359 -3.87701 2608 ft 226 kts 84°
2026-05-06 11:40 55.76816 -3.85066 2362 ft 223 kts 63°
2026-05-06 11:41 55.77696 -3.82812 2147 ft 210 kts 52°
2026-05-06 11:41 55.78650 -3.80999 2443 ft 199 kts 43°
2026-05-06 11:41 55.79712 -3.79341 2724 ft 205 kts 44°
2026-05-06 11:41 55.80775 -3.77628 2859 ft 207 kts 46°
2026-05-06 11:42 55.81815 -3.75826 2912 ft 209 kts 47°
2026-05-06 11:42 55.82753 -3.73862 3006 ft 210 kts 57°
2026-05-06 11:42 55.83575 -3.71704 2989 ft 210 kts 58°
2026-05-06 11:42 55.84341 -3.69515 3028 ft 207 kts 60°
2026-05-06 11:43 55.85071 -3.67316 3020 ft 206 kts 61°
2026-05-06 11:43 55.85796 -3.65113 3069 ft 207 kts 61°
2026-05-06 11:43 55.86521 -3.62908 3018 ft 205 kts 61°
2026-05-06 11:44 55.87890 -3.58770 3010 ft 185 kts 61°
2026-05-06 11:44 55.88544 -3.56801 2759 ft 189 kts 62°
2026-05-06 11:44 55.89181 -3.54688 2108 ft 196 kts 64°
2026-05-06 11:44 55.89839 -3.52643 1690 ft 185 kts 60°
2026-05-06 11:45 55.90485 -3.50722 1088 ft 177 kts 60°
2026-05-06 11:45 55.91060 -3.48962 818 ft 150 kts 60°
2026-05-06 11:45 55.91528 -3.47503 574 ft 122 kts 60°
2026-05-06 11:45 55.92008 -3.46046 630 ft 139 kts 59°
2026-05-06 11:46 55.92510 -3.44587 547 ft 138 kts 58°
2026-05-06 11:46 55.93004 -3.43142 466 ft 136 kts 59°
2026-05-06 11:46 55.93488 -3.41703 378 ft 135 kts 59°
2026-05-06 11:46 55.93973 -3.40258 278 ft 139 kts 58°
2026-05-06 11:47 55.94478 -3.38778 166 ft 138 kts 58°
2026-05-06 11:47 55.94928 -3.37457 114 ft 87 kts 58°
2026-05-06 11:47 55.95127 -3.36881 113 ft 42 kts 58°
2026-05-06 11:47 55.95253 -3.36496 113 ft 22 kts 78°
2026-05-06 11:48 55.95210 -3.36367 113 ft 0 kts 149°
2026-05-06 11:48 55.95183 -3.36339 113 ft 12 kts 152°
2026-05-06 11:49 55.95132 -3.36333 113 ft 7 kts 202°
2026-05-06 11:49 55.95063 -3.36486 114 ft 22 kts 239°
2026-05-06 11:49 55.95002 -3.36675 117 ft 0 kts 238°
2026-05-06 11:50 55.94968 -3.36769 112 ft 22 kts 231°
2026-05-06 11:50 55.94861 -3.36765 112 ft 12 kts 150°
2026-05-06 11:50 55.94805 -3.36646 112 ft 0 kts 121°